FW7253 Weather Reports


time (UTC)temp
F
wind
direction
speed
knots
gust
knots
rain 1hr
in
rain 24hr
in
rain mn
in
humidity
%
barometer
mb
20260906091034 62 327 4.3 10.4 0.00 0.11 0.00 56 1017.2
20260906090534 62 330 2.6 10.4 0.00 0.11 0.00 58 1017.2
20260906090049 62 318 4.3 8.7 0.00 0.11 0.00 58 1017.2
20260906085530 61 355 2.6 8.7 0.00 0.18 0.00 60 1017.3
20260906085032 61 317 4.3 8.7 0.00 0.18 0.00 58 1017.3
20260906084546 61 326 2.6 7.8 0.00 0.18 0.00 60 1017.3
20260906084033 60 350 3.5 7.8 0.00 0.18 0.00 61 1017.2
20260906083535 60 325 3.5 7.8 0.00 0.18 0.00 60 1017.2
20260906083054 60 328 3.5 8.7 0.00 0.18 0.00 61 1017.1
20260906082536 60 345 2.6 8.7 0.00 0.18 0.00 62 1017.1
20260906082031 60 311 3.5 13.0 0.00 0.18 0.00 63 1017.1
20260906081555 60 319 5.2 13.0 0.00 0.18 0.00 62 1017.0
20260906081031 59 335 4.3 7.8 0.00 0.18 0.00 63 1017.0
20260906080534 59 319 4.3 7.0 0.00 0.18 0.00 64 1016.9
20260906080048 59 352 4.3 7.8 0.00 0.18 0.00 65 1016.9
20260906075531 59 319 3.5 7.8 0.00 0.25 0.00 65 1016.7
20260906075031 59 340 4.3 8.7 0.00 0.25 0.00 66 1016.7
20260906074550 58 327 3.5 8.7 0.00 0.25 0.00 66 1016.7
20260906074030 58 330 3.5 8.7 0.00 0.25 0.00 66 1016.7
20260906073533 58 322 3.5 7.8 0.00 0.25 0.00 67 1016.8
20260906073048 58 328 3.5 7.8 0.00 0.25 0.00 68 1016.7
20260906072533 57 353 4.3 8.7 0.00 0.25 0.00 67 1016.7
20260906072033 57 325 5.2 8.7 0.00 0.25 0.00 68 1016.6
20260906071554 57 5 4.3 7.0 0.00 0.25 0.00 70 1016.7
20260906071033 57 359 3.5 7.0 0.00 0.25 0.00 70 1016.6
20260906070533 57 325 3.5 7.0 0.00 0.25 0.00 71 1016.4
20260906070046 57 345 3.5 5.2 0.00 0.25 0.00 71 1016.2
20260906065536 56 8 2.6 5.2 0.00 0.32 0.00 71 1016.3
20260906065033 56 8 1.7 5.2 0.00 0.32 0.00 71 1016.3
20260906064555 56 18 1.7 6.1 0.00 0.32 0.00 72 1016.2
20260906064032 56 338 1.7 6.1 0.00 0.32 0.00 72 1016.2
20260906063532 55 346 1.7 4.3 0.00 0.32 0.00 73 1016.2
20260906063047 55 344 1.7 4.3 0.00 0.32 0.00 74 1016.1
20260906062532 55 335 0.9 3.5 0.00 0.32 0.00 73 1016.2
20260906062032 55 8 0.9 4.3 0.00 0.32 0.00 74 1016.1
20260906061556 55 343 0.9 4.3 0.00 0.32 0.00 74 1016.1
20260906061032 54 7 0.0 4.3 0.00 0.32 0.00 74 1016.1
20260906060532 54 113 0.9 4.3 0.00 0.32 0.00 75 1016.0
20260906060133 53 6 1.7 4.3 0.00 0.32 0.00 76 1016.1
20260906055533 53 343 1.7 4.3 0.00 0.40 0.00 78 1016.2
20260906055032 53 4 0.9 7.0 0.00 0.40 0.00 76 1016.0
20260906054550 54 359 0.9 8.7 0.00 0.40 0.00 73 1015.9
20260906054033 55 348 4.3 8.7 0.00 0.40 0.00 71 1015.9
20260906053535 54 309 2.6 6.1 0.00 0.40 0.00 74 1015.8
20260906053048 53 10 1.7 6.1 0.00 0.40 0.00 75 1015.6
20260906052536 53 15 1.7 4.3 0.00 0.40 0.00 76 1015.6
20260906052033 52 0 1.7 4.3 0.00 0.40 0.00 77 1015.5
20260906051554 52 356 1.7 4.3 0.00 0.40 0.00 78 1015.4
20260906051032 51 24 0.0 2.6 0.00 0.40 0.00 79 1015.4
20260906050532 51 37 0.0 2.6 0.00 0.40 0.00 79 1015.3
20260906050109 51 50 0.0 1.7 0.00 0.40 0.00 79 1015.3
20260906045533 51 0 0.0 1.7 0.00 0.41 0.00 79 1015.3
20260906045034 51 0 0.0 1.7 0.00 0.41 0.00 78 1015.3
20260906044556 52 354 0.0 1.7 0.00 0.41 0.00 77 1015.3
20260906044035 52 89 0.0 1.7 0.00 0.41 0.00 76 1015.2
20260906043531 53 98 0.0 7.0 0.00 0.41 0.00 76 1015.1
20260906043046 52 9 0.9 7.0 0.00 0.41 0.00 76 1015.1
20260906042532 52 330 1.7 5.2 0.00 0.41 0.00 77 1015.0
20260906042032 52 307 1.7 5.2 0.00 0.41 0.00 77 1015.1
20260906041546 52 343 0.9 5.2 0.00 0.41 0.00 78 1014.9
20260906041033 52 13 0.0 4.3 0.00 0.41 0.00 78 1015.0
20260906040532 52 20 0.9 4.3 0.00 0.41 0.00 78 1014.9
20260906040050 52 89 0.0 3.5 0.00 0.41 0.00 78 1014.8
20260906035539 52 0 0.9 3.5 0.00 0.41 0.00 77 1014.9
20260906035033 52 0 0.9 2.6 0.00 0.41 0.00 77 1014.7
20260906034556 53 113 0.9 2.6 0.00 0.41 0.00 76 1014.6
20260906034033 53 51 0.9 4.3 0.00 0.41 0.00 76 1014.6
20260906033532 53 68 0.9 4.3 0.00 0.41 0.00 77 1014.5
20260906033045 53 0 0.0 7.0 0.00 0.41 0.00 77 1014.5
20260906032532 52 355 1.7 7.0 0.00 0.41 0.00 78 1014.4
20260906032032 52 4 1.7 3.5 0.00 0.41 0.00 78 1014.4
20260906031609 52 290 0.0 1.7 0.00 0.41 0.00 78 1014.3
20260906031032 52 332 0.9 1.7 0.00 0.41 0.00 78 1014.3
20260906030532 52 314 0.0 1.7 0.00 0.41 0.00 78 1014.2
20260906030047 52 92 0.0 1.7 0.00 0.41 0.00 77 1014.1
20260906025535 52 97 0.0 3.5 0.00 0.41 0.00 77 1014.1
20260906025033 52 51 0.0 3.5 0.00 0.41 0.00 77 1014.2
20260906024554 52 18 0.0 2.6 0.00 0.41 0.00 78 1014.2
20260906024031 52 0 0.0 2.6 0.00 0.41 0.00 78 1014.1
20260906023533 52 39 0.0 1.7 0.00 0.41 0.00 77 1014.1
20260906023105 52 32 0.0 3.5 0.00 0.41 0.00 77 1013.9
20260906022534 52 0 0.0 3.5 0.00 0.41 0.00 78 1013.9
20260906022032 52 117 0.0 1.7 0.00 0.41 0.00 79 1013.9
20260906021548 52 0 0.0 1.7 0.00 0.41 0.00 79 1013.8
20260906021031 52 113 0.0 1.7 0.00 0.41 0.00 78 1013.7
20260906020536 52 45 0.0 1.7 0.00 0.41 0.00 78 1013.7
20260906020059 53 0 0.0 7.0 0.00 0.41 0.00 77 1013.6
20260906015532 53 0 0.0 7.0 0.00 0.41 0.00 76 1013.8
20260906015034 53 339 1.7 5.2 0.00 0.41 0.00 76 1013.7
20260906014544 53 46 0.0 4.3 0.00 0.41 0.00 76 1013.6
20260906014032 53 0 0.9 6.1 0.00 0.41 0.00 76 1013.6
20260906013534 53 49 1.7 6.1 0.00 0.41 0.00 76 1013.7
20260906013048 53 0 1.7 6.1 0.00 0.41 0.00 76 1013.7
20260906012650 54 5 2.6 7.0 0.00 0.41 0.00 75 1013.7
20260906012032 54 57 3.5 7.8 0.00 0.41 0.00 74 1013.6
20260906011547 54 338 3.5 7.8 0.00 0.41 0.00 75 1013.6
20260906011032 54 356 4.3 7.8 0.00 0.41 0.00 75 1013.5
20260906010532 54 334 0.9 4.3 0.00 0.41 0.00 75 1013.4
20260906010059 53 61 2.6 4.3 0.00 0.41 0.00 77 1013.3
20260906005532 53 0 0.0 2.6 0.00 0.41 0.00 79 1013.3
20260906005032 52 0 0.0 2.6 0.00 0.41 0.00 79 1013.1
20260906004556 53 77 0.0 3.5 0.00 0.41 0.00 78 1013.1
20260906004032 53 0 0.9 5.2 0.00 0.41 0.00 77 1013.1
20260906003532 54 15 1.7 5.2 0.00 0.41 0.00 76 1013.1
20260906003058 54 195 0.9 4.3 0.00 0.41 0.00 76 1012.9
20260906002531 54 344 0.9 7.0 0.00 0.41 0.00 76 1012.9
20260906002033 54 63 2.6 7.0 0.00 0.41 0.00 76 1012.8
20260906001554 54 30 1.7 7.0 0.00 0.41 0.00 77 1012.7
20260906001032 53 47 0.9 4.3 0.00 0.41 0.00 78 1012.6
20260906000532 53 19 0.9 4.3 0.00 0.41 0.00 78 1012.5
20260906000105 53 58 0.0 4.3 0.00 0.41 0.00 78 1012.5
20260905235534 54 76 1.7 7.0 0.00 0.41 0.00 77 1012.3
20260905235033 54 355 2.6 7.8 0.00 0.41 0.00 76 1012.4
20260905234554 54 1 2.6 7.8 0.00 0.41 0.00 77 1012.3
20260905234032 53 330 3.5 7.0 0.00 0.41 0.00 78 1012.2
20260905233532 53 28 0.9 5.2 0.00 0.41 0.00 79 1012.2
20260905233102 53 356 0.9 5.2 0.00 0.41 0.00 78 1012.2
20260905232533 53 334 2.6 5.2 0.00 0.41 0.00 79 1012.1
20260905232034 53 20 0.9 3.5 0.00 0.41 0.00 79 1012.1
20260905231605 53 19 0.9 3.5 0.00 0.41 0.00 81 1012.0
20260905231032 52 0 0.9 5.2 0.00 0.41 0.00 82 1011.9
20260905230532 51 54 0.9 5.2 0.00 0.41 0.00 85 1011.9
20260905230049 50 5 0.9 2.6 0.00 0.41 0.00 84 1011.7
20260905225531 52 73 0.0 2.6 0.00 0.41 0.00 82 1011.6
20260905225033 53 40 0.0 1.7 0.00 0.41 0.00 80 1011.7
20260905224547 53 0 0.0 4.3 0.00 0.41 0.00 79 1011.6
20260905224037 54 322 0.9 4.3 0.00 0.41 0.00 79 1011.6
20260905223532 54 342 2.6 4.3 0.00 0.41 0.00 79 1011.5
20260905223052 54 17 1.7 4.3 0.00 0.41 0.00 79 1011.3
20260905222532 53 333 0.9 5.2 0.00 0.41 0.00 80 1011.3
20260905222033 54 346 1.7 5.2 0.00 0.41 0.00 79 1011.3
20260905221601 54 86 0.9 4.3 0.00 0.41 0.00 80 1011.3
20260905221032 53 84 0.9 4.3 0.00 0.41 0.00 81 1011.2
20260905220532 54 28 0.0 4.3 0.00 0.41 0.00 80 1011.2
20260905220056 54 65 0.9 4.3 0.00 0.41 0.00 81 1011.1
20260905215534 54 0 0.9 4.3 0.00 0.41 0.41 80 1011.0
20260905215031 54 30 0.9 4.3 0.00 0.41 0.41 80 1011.0
20260905214546 54 37 1.7 4.3 0.00 0.41 0.41 80 1010.8
20260905214032 55 97 0.9 5.2 0.00 0.41 0.41 80 1010.8
20260905213533 55 334 0.9 5.2 0.00 0.41 0.41 80 1010.7
20260905213053 55 41 1.7 5.2 0.00 0.41 0.41 80 1010.6
20260905212532 55 0 0.0 4.3 0.00 0.41 0.41 79 1010.6
20260905212031 55 18 0.9 4.3 0.00 0.41 0.41 79 1010.5
20260905211549 55 347 2.6 4.3 0.00 0.41 0.41 80 1010.5
20260905211032 55 0 0.0 6.1 0.00 0.41 0.41 80 1010.4
20260905210532 55 45 4.3 6.1 0.00 0.41 0.41 80 1010.3
20260905210104 55 345 1.7 6.1 0.00 0.41 0.41 83 1010.3
20260905205533 54 65 2.6 6.1 0.00 0.41 0.41 84 1010.1
20260905205033 54 18 3.5 5.2 0.00 0.41 0.41 87 1009.9
20260905204552 53 352 0.9 5.2 0.00 0.41 0.41 91 1009.9
20260905204031 52 345 1.7 5.2 0.00 0.41 0.41 93 1009.8
20260905203532 50 5 1.7 3.5 0.00 0.41 0.41 93 1009.6
20260905203047 50 29 0.9 3.5 0.00 0.41 0.41 93 1009.5
20260905202532 49 360 0.0 4.3 0.00 0.41 0.41 93 1009.5
20260905202032 49 0 0.0 4.3 0.00 0.41 0.41 92 1009.4
20260905201556 50 304 0.9 4.3 0.00 0.41 0.41 93 1009.4
20260905201031 50 0 0.0 4.3 0.00 0.41 0.41 93 1009.3
20260905200535 50 0 0.0 1.7 0.00 0.41 0.41 92 1009.2
20260905200055 50 0 0.0 1.7 0.00 0.41 0.41 92 1009.3
20260905195531 50 320 0.0 4.3 0.00 0.41 0.41 92 1009.1
20260905195031 50 0 0.0 4.3 0.00 0.41 0.41 92 1009.1
20260905194553 50 335 1.7 4.3 0.00 0.41 0.41 92 1009.0
20260905194034 51 355 1.7 4.3 0.00 0.41 0.41 92 1009.0
20260905193531 51 0 0.0 2.6 0.00 0.41 0.41 93 1008.9
20260905193050 52 0 0.0 0.0 0.00 0.41 0.41 92 1008.8
20260905192533 52 0 0.0 0.0 0.00 0.41 0.41 92 1008.8
20260905192032 52 0 0.0 0.0 0.00 0.41 0.41 92 1008.7
20260905191554 52 0 0.0 0.0 0.00 0.41 0.41 92 1008.7
20260905191031 52 0 0.0 0.0 0.00 0.41 0.41 91 1008.4
20260905190541 52 0 0.0 0.0 0.00 0.41 0.41 92 1008.4
20260905190056 52 0 0.0 0.0 0.00 0.41 0.41 91 1008.3
20260905185533 52 0 0.0 0.0 0.00 0.41 0.41 91 1008.1
20260905185031 52 0 0.0 0.0 0.00 0.41 0.41 91 1008.2
20260905184552 52 0 0.0 0.0 0.00 0.41 0.41 90 1008.1
20260905184034 53 0 0.0 0.0 0.00 0.41 0.41 91 1008.1
20260905183532 53 0 0.0 0.0 0.00 0.41 0.41 90 1008.0
20260905183047 53 0 0.0 0.0 0.00 0.41 0.41 90 1007.9
20260905182531 53 0 0.0 0.0 0.00 0.41 0.41 90 1007.8
20260905182035 53 0 0.0 0.0 0.00 0.41 0.41 89 1007.7
20260905181545 53 0 0.0 0.0 0.00 0.41 0.41 89 1007.5
20260905181032 54 0 0.0 0.0 0.00 0.41 0.41 89 1007.5
20260905180531 54 0 0.0 0.0 0.00 0.41 0.41 88 1007.4
20260905180109 54 0 0.0 0.0 0.00 0.41 0.41 88 1007.3
20260905175532 55 0 0.0 0.0 0.00 0.41 0.41 88 1007.1
20260905175031 55 0 0.0 0.0 0.00 0.41 0.41 87 1007.1
20260905174547 56 0 0.0 0.9 0.00 0.41 0.41 87 1007.0
20260905174031 56 0 0.0 0.9 0.00 0.41 0.41 87 1007.0
20260905173532 56 299 0.0 0.9 0.00 0.41 0.41 84 1006.9
20260905173108 57 0 0.0 0.9 0.00 0.41 0.41 83 1006.8
20260905172531 58 0 0.0 0.9 0.00 0.41 0.41 81 1006.6
20260905172032 59 0 0.0 0.9 0.00 0.41 0.41 79 1006.5
20260905171556 60 0 0.0 0.0 0.00 0.41 0.41 77 1006.3
20260905171031 61 0 0.0 0.0 0.00 0.41 0.41 76 1006.3
20260905170531 62 0 0.0 0.9 0.00 0.41 0.41 73 1006.1
20260905170049 63 0 0.0 2.6 0.00 0.41 0.41 72 1006.0
20260905165535 63 282 0.9 2.6 0.00 0.41 0.41 71 1005.9
20260905165033 63 272 0.0 0.0 0.00 0.41 0.41 71 1005.8
20260905164545 63 0 0.0 0.0 0.00 0.41 0.41 73 1005.7
20260905164034 64 0 0.0 0.9 0.00 0.41 0.41 71 1005.7
20260905163531 64 0 0.0 2.6 0.00 0.41 0.41 67 1005.5
20260905163054 63 0 0.0 2.6 0.00 0.41 0.41 68 1005.5
20260905162532 63 334 1.7 2.6 0.00 0.41 0.41 69 1005.5
20260905162030 64 0 0.9 2.6 0.00 0.41 0.41 69 1005.4
20260905161548 63 278 0.0 3.5 0.00 0.41 0.41 69 1005.3
20260905161032 63 0 0.0 3.5 0.00 0.41 0.41 71 1005.3
20260905160532 63 299 0.9 4.3 0.00 0.41 0.41 72 1005.2
20260905160055 62 287 2.6 4.3 0.00 0.41 0.41 71 1005.2
20260905155536 62 290 2.6 4.3 0.00 0.41 0.41 71 1005.0
20260905155031 63 290 1.7 3.5 0.00 0.41 0.41 72 1004.9
20260905154550 63 290 0.0 2.6 0.00 0.41 0.41 75 1004.8
20260905154033 62 72 0.9 2.6 0.00 0.41 0.41 73 1004.8
20260905153532 63 231 0.9 2.6 0.00 0.41 0.41 73 1004.8
20260905153053 63 297 0.9 4.3 0.00 0.41 0.41 74 1004.7
20260905152531 62 217 1.7 4.3 0.00 0.41 0.41 74 1004.6
20260905152031 62 264 1.7 4.3 0.00 0.41 0.41 75 1004.6
20260905151550 62 302 1.7 4.3 0.00 0.41 0.41 74 1004.5
20260905151033 63 310 1.7 4.3 0.00 0.41 0.41 76 1004.4
20260905150532 63 278 1.7 5.2 0.00 0.41 0.41 76 1004.3
20260905150055 63 319 0.9 5.2 0.00 0.41 0.41 77 1004.2
20260905145537 62 0 0.9 3.5 0.00 0.41 0.41 79 1004.1
20260905145031 62 302 1.7 3.5 0.00 0.41 0.41 79 1004.0
20260905144555 61 296 1.7 4.3 0.00 0.41 0.41 79 1003.9
20260905144031 61 289 2.6 4.3 0.00 0.41 0.41 78 1003.8
20260905143532 61 311 1.7 3.5 0.00 0.41 0.41 81 1003.9
20260905143052 61 343 1.7 5.2 0.00 0.41 0.41 84 1003.8
20260905142535 60 323 2.6 6.1 0.00 0.41 0.41 82 1003.8
20260905142032 60 326 2.6 6.1 0.00 0.41 0.41 82 1003.8
20260905141548 61 334 2.6 4.3 0.00 0.41 0.41 84 1003.7
20260905141034 61 316 2.6 3.5 0.00 0.41 0.41 84 1003.5
20260905140531 60 23 1.7 3.5 0.00 0.41 0.41 84 1003.6
20260905135531 59 314 0.0 2.6 0.03 0.41 0.41 87 1003.6
20260905135034 58 278 0.9 2.6 0.05 0.41 0.41 88 1003.5
20260905134600 58 334 0.9 2.6 0.07 0.41 0.41 90 1003.7
20260905134033 57 297 0.9 2.6 0.10 0.41 0.41 91 1003.6
20260905133530 56 285 1.7 2.6 0.10 0.41 0.41 92 1003.5
20260905133049 56 306 0.0 1.7 0.10 0.41 0.41 93 1003.5
20260905132531 54 0 0.0 0.0 0.10 0.41 0.41 93 1003.5
20260905132031 54 0 0.0 0.0 0.10 0.41 0.41 93 1003.5
20260905131546 53 0 0.0 1.7 0.09 0.40 0.40 93 1003.6
20260905131033 53 0 0.0 2.6 0.09 0.40 0.40 92 1003.5
20260905130532 53 351 1.7 4.3 0.09 0.40 0.40 92 1003.6
20260905130050 53 345 1.7 6.1 0.08 0.40 0.40 92 1003.5
20260905125531 53 335 2.6 7.0 0.06 0.37 0.37 91 1003.4
20260905125031 53 351 2.6 7.0 0.04 0.36 0.36 90 1003.3
20260905124553 54 314 4.3 7.0 0.02 0.33 0.33 89 1003.3
20260905124034 55 347 3.5 7.0 0.00 0.31 0.31 88 1003.2
20260905123532 56 15 2.6 7.0 0.00 0.31 0.31 87 1003.2
20260905123046 57 274 2.6 6.1 0.00 0.31 0.31 86 1003.1
20260905122531 57 323 0.9 2.6 0.00 0.31 0.31 86 1003.0
20260905122031 57 305 0.0 2.6 0.00 0.31 0.31 85 1002.9
20260905121558 57 285 0.9 2.6 0.00 0.31 0.31 85 1002.8
20260905121031 57 263 0.9 2.6 0.00 0.31 0.31 86 1002.8
20260905120531 58 283 0.9 2.6 0.00 0.31 0.31 85 1002.7
20260905120107 58 0 0.0 0.9 0.00 0.31 0.31 85 1002.6
20260905115532 57 0 0.0 1.7 0.00 0.31 0.31 85 1002.6
20260905115032 58 0 0.0 1.7 0.00 0.31 0.31 84 1002.5
20260905114559 58 218 0.0 1.7 0.00 0.31 0.31 84 1002.5
20260905114031 57 285 0.9 1.7 0.00 0.31 0.31 83 1002.5
20260905113535 58 0 0.0 1.7 0.00 0.31 0.31 83 1002.4
20260905113058 58 0 0.0 0.0 0.00 0.31 0.31 84 1002.3
20260905112531 57 0 0.0 0.9 0.00 0.31 0.31 84 1002.2
20260905112032 58 0 0.0 0.9 0.00 0.31 0.31 86 1002.1
20260905111651 57 113 0.0 1.7 0.00 0.31 0.31 86 1002.1
20260905111031 56 0 0.0 1.7 0.00 0.31 0.31 87 1002.0
20260905110530 56 0 0.0 3.5 0.00 0.31 0.31 87 1002.0
20260905110055 56 0 0.9 3.5 0.00 0.31 0.31 88 1001.9
20260905105532 57 147 0.0 3.5 0.00 0.31 0.31 88 1001.9
20260905105030 57 127 0.0 4.3 0.00 0.31 0.31 87 1001.9
20260905104555 57 118 0.0 4.3 0.00 0.31 0.31 88 1001.8
20260905104032 57 0 0.9 3.5 0.00 0.31 0.31 89 1001.7
20260905103533 58 89 0.0 3.5 0.00 0.31 0.31 90 1001.6
20260905103102 58 212 0.9 2.6 0.00 0.31 0.31 92 1001.6
20260905102530 57 0 0.0 2.6 0.00 0.31 0.31 93 1001.5
20260905102031 56 127 0.9 2.6 0.00 0.31 0.31 92 1001.5
20260905101552 56 165 0.9 2.6 0.00 0.31 0.31 94 1001.5
20260905101031 55 144 0.9 2.6 0.00 0.31 0.31 94 1001.4
20260905100531 54 115 0.0 2.6 0.00 0.31 0.31 94 1001.4
20260905100059 54 0 0.0 2.6 0.00 0.31 0.31 94 1001.4
20260905095530 54 110 0.9 2.6 0.01 0.31 0.31 94 1001.4
20260905095033 54 107 0.0 2.6 0.01 0.31 0.31 94 1001.3
20260905094554 54 98 0.9 2.6 0.01 0.31 0.31 94 1001.5
20260905094032 54 110 0.0 0.9 0.02 0.31 0.31 95 1001.4
20260905093530 54 0 0.0 0.9 0.02 0.31 0.31 95 1001.3
20260905093106 53 0 0.0 0.9 0.02 0.31 0.31 95 1001.4
20260905092533 53 0 0.0 1.7 0.02 0.31 0.31 95 1001.3
20260905092031 53 0 0.0 1.7 0.03 0.31 0.31 95 1001.3
20260905091551 53 0 0.0 0.0 0.04 0.31 0.31 96 1001.2